JS2WAD-13 Nagoya JP current weather conditions

sailwx.info

Wind from 100

Air temperature 17.8° C
Dewpoint 13.7° C

Last reported at 2018-Apr-19 11:04 UTC.
Time now 2018-Apr-19 11:27 UTC

Location: N 35°08' E 136°59'.
View on Google Maps.

See reports from other nearby stations

  
Tides and Currents Weather Stations Pressure Air Temp Water Temp Dewpoint Dewpoint Depression Visibility Wind Speed Wind Dir Waves Ship Positions
date/time (UTC)wind fromknots sea level pressurealtimeterstation pressurevisibilityair tempwater tempwave heightnotes
2018-Apr-19 11:09 105 17.8
2018-Apr-19 11:04 100 17.8
2018-Apr-19 10:59 100 17.8
2018-Apr-19 10:54 102 17.8
2018-Apr-19 10:49 102 18.3
2018-Apr-19 10:44 102 18.3
2018-Apr-19 10:39 102 18.3
2018-Apr-19 10:34 102 18.3
2018-Apr-19 10:29 102 18.3
2018-Apr-19 10:24 102 18.3
2018-Apr-19 10:19 102 18.9
2018-Apr-19 10:14 145 18.9
2018-Apr-19 10:09 110 18.9
2018-Apr-19 10:04 075 19.4
2018-Apr-19 09:59 102 19.4
2018-Apr-19 09:54 041 19.4
2018-Apr-19 09:49 040 19.4
2018-Apr-19 09:44 108 19.4
2018-Apr-19 09:39 168 20.0
2018-Apr-19 09:34 307 20.0
2018-Apr-19 09:29 295 20.0
2018-Apr-19 09:24 309 20.0
2018-Apr-19 09:19 079 20.6
2018-Apr-19 09:14 299 20.6
2018-Apr-19 09:09 291 20.6
2018-Apr-19 09:04 304 0 gusting 2 20.6
2018-Apr-19 08:59 117 21.1
2018-Apr-19 08:54 116 21.1
2018-Apr-19 08:49 018 21.1
2018-Apr-19 08:44 343 21.7
2018-Apr-19 08:39 087 21.7
2018-Apr-19 08:34 312 21.7
2018-Apr-19 08:29 255 21.7
2018-Apr-19 08:24 283 0 gusting 2 22.2
2018-Apr-19 08:19 302 0 gusting 3 22.2
2018-Apr-19 08:14 281 22.2
2018-Apr-19 08:09 089 0 gusting 3 22.8
2018-Apr-19 08:04 097 0 gusting 1 22.8
2018-Apr-19 07:59 297 0 gusting 2 22.8
2018-Apr-19 07:54 018 0 gusting 2 23.3
2018-Apr-19 07:49 305 0 gusting 3 23.3
2018-Apr-19 07:44 112 0 gusting 2 23.9
2018-Apr-19 07:39 346 0 gusting 2 23.9
2018-Apr-19 07:34 292 0 gusting 2 23.9
2018-Apr-19 07:29 276 0 gusting 2 23.9
2018-Apr-19 07:24 269 0 gusting 5 23.9
2018-Apr-19 07:19 305 0 gusting 2 24.4
2018-Apr-19 07:14 295 0 gusting 1 24.4
2018-Apr-19 07:09 235 0 gusting 2 25.0
2018-Apr-19 07:04 283 0 gusting 3 25.0
2018-Apr-19 06:59 282 25.6
2018-Apr-19 06:54 260 0 gusting 2 25.6
2018-Apr-19 06:49 310 0 gusting 3 25.6
2018-Apr-19 06:44 297 0 gusting 2 26.1
2018-Apr-19 06:39 267 0 gusting 3 26.1
2018-Apr-19 06:34 110 26.7
2018-Apr-19 06:29 294 27.2
2018-Apr-19 06:24 320 27.2
2018-Apr-19 06:19 316 27.8
2018-Apr-19 06:14 326 28.3
2018-Apr-19 06:09 326 28.3
2018-Apr-19 06:04 321 27.8
2018-Apr-19 05:59 316 27.8
2018-Apr-19 05:54 300 28.3
2018-Apr-19 05:49 299 28.3
2018-Apr-19 05:44 302 28.3
2018-Apr-19 05:39 303 28.3
2018-Apr-19 05:34 303 28.3
2018-Apr-19 05:29 278 28.3
2018-Apr-19 05:24 278 27.8
2018-Apr-19 05:19 276 27.8
2018-Apr-19 05:14 337 28.3
2018-Apr-19 05:09 283 28.3
2018-Apr-19 05:04 283 27.8
2018-Apr-19 04:59 094 27.8
2018-Apr-19 04:54 109 28.3
2018-Apr-19 04:49 320 28.9
2018-Apr-19 04:44 281 28.9
2018-Apr-19 04:39 281 28.9
2018-Apr-19 04:34 281 28.3
2018-Apr-19 04:29 281 28.3
2018-Apr-19 04:24 281 28.3
2018-Apr-19 04:19 281 28.3
2018-Apr-19 04:14 281 27.8
2018-Apr-19 04:09 281 27.2
2018-Apr-19 04:04 281 27.2
2018-Apr-19 03:59 281 26.7
2018-Apr-19 03:54 312 26.7
2018-Apr-19 03:49 313 26.7
2018-Apr-19 03:44 313 26.7
2018-Apr-19 03:39 030 26.7
2018-Apr-19 03:34 297 26.1
2018-Apr-19 03:29 297 26.1
2018-Apr-19 03:24 297 26.1
2018-Apr-19 03:19 297 25.6
2018-Apr-19 03:14 297 25.0
2018-Apr-19 03:09 297 25.6
2018-Apr-19 03:04 293 25.0
2018-Apr-19 02:59 293 25.0
2018-Apr-19 02:54 293 24.4
2018-Apr-19 02:49 293 24.4
2018-Apr-19 02:44 293 24.4
2018-Apr-19 02:39 283 24.4
2018-Apr-19 02:34 283 23.9
2018-Apr-19 02:29 280 23.9
2018-Apr-19 02:24 280 23.3
2018-Apr-19 02:19 280 23.3
2018-Apr-19 02:14 280 22.8
2018-Apr-19 02:09 280 22.2
2018-Apr-19 02:04 284 22.2
2018-Apr-19 01:59 284 22.2
2018-Apr-19 01:39 291 20.6
2018-Apr-19 01:34 290 20.6
2018-Apr-19 01:29 290 20.6
2018-Apr-19 01:24 290 20.0
2018-Apr-19 01:19 290 20.0
2018-Apr-19 01:14 290 19.4
2018-Apr-19 01:09 290 19.4
2018-Apr-19 01:04 290 19.4
2018-Apr-19 00:59 290 18.9
2018-Apr-19 00:54 290 18.9
2018-Apr-19 00:49 290 18.3
2018-Apr-19 00:44 290 18.3
2018-Apr-19 00:39 290 18.3
2018-Apr-19 00:34 290 17.8
2018-Apr-19 00:29 290 17.8
2018-Apr-19 00:24 290 17.2
2018-Apr-19 00:19 290 17.2
2018-Apr-19 00:14 290 17.2
2018-Apr-19 00:09 290 16.7
2018-Apr-19 00:04 290 16.7
2018-Apr-18 23:59 290 16.1
2018-Apr-18 23:53 290 16.1
2018-Apr-18 23:48 290 15.6
2018-Apr-18 23:38 290 15.0
2018-Apr-18 23:33 290 15.0
2018-Apr-18 23:28 290 14.4
2018-Apr-18 23:23 290 14.4
2018-Apr-18 23:18 290 13.9
2018-Apr-18 23:13 290 13.3
2018-Apr-18 23:08 290 13.3
2018-Apr-18 23:03 290 13.3
2018-Apr-18 22:58 290 12.8
2018-Apr-18 22:53 290 12.8
2018-Apr-18 22:48 290 12.2
2018-Apr-18 22:43 290 12.2
2018-Apr-18 22:38 290 12.2
2018-Apr-18 22:33 290 11.7
2018-Apr-18 22:28 290 11.7
2018-Apr-18 22:23 290 11.7
2018-Apr-18 22:18 290 11.1
2018-Apr-18 22:13 290 11.1
2018-Apr-18 22:08 290 11.1
2018-Apr-18 22:03 290 10.6
2018-Apr-18 21:58 290 10.6
2018-Apr-18 21:53 290 10.6
2018-Apr-18 21:48 290 10.6
2018-Apr-18 21:43 290 10.0
2018-Apr-18 21:38 290 10.0
2018-Apr-18 21:28 290 10.0
2018-Apr-18 21:23 290 10.0
2018-Apr-18 21:18 290 10.0
2018-Apr-18 21:13 290 9.4
2018-Apr-18 21:08 290 9.4
2018-Apr-18 21:03 290 9.4
2018-Apr-18 20:58 290 9.4
2018-Apr-18 20:53 290 9.4
2018-Apr-18 20:48 290 9.4
2018-Apr-18 20:43 290 9.4
2018-Apr-18 20:38 290 9.4
2018-Apr-18 20:33 290 9.4
2018-Apr-18 20:28 290 9.4
2018-Apr-18 20:23 290 9.4
2018-Apr-18 20:18 290 9.4
2018-Apr-18 20:13 290 9.4
2018-Apr-18 20:08 290 9.4
2018-Apr-18 20:03 290 9.4
2018-Apr-18 19:58 290 9.4
2018-Apr-18 19:53 290 9.4
2018-Apr-18 19:48 290 9.4
2018-Apr-18 19:43 290 9.4
2018-Apr-18 19:38 290 9.4
2018-Apr-18 19:33 290 9.4
2018-Apr-18 19:28 290 9.4
2018-Apr-18 19:23 290 9.4
2018-Apr-18 19:18 290 9.4
2018-Apr-18 19:13 290 9.4
2018-Apr-18 19:08 290 9.4
2018-Apr-18 19:03 290 9.4
2018-Apr-18 18:58 290 10.0
2018-Apr-18 18:53 290 10.0
2018-Apr-18 18:48 290 10.0
2018-Apr-18 18:43 290 10.0
2018-Apr-18 18:38 290 10.0
2018-Apr-18 18:33 290 10.0
2018-Apr-18 18:28 290 10.0
2018-Apr-18 18:23 290 10.0
2018-Apr-18 18:18 290 10.0
2018-Apr-18 18:13 290 10.0
2018-Apr-18 18:08 290 10.0
2018-Apr-18 18:03 290 10.0
2018-Apr-18 17:58 290 10.0
2018-Apr-18 17:53 290 10.0
2018-Apr-18 17:48 290 10.6
2018-Apr-18 17:43 290 10.6
2018-Apr-18 17:38 290 10.6
2018-Apr-18 17:33 290 10.6
2018-Apr-18 17:28 290 10.6
2018-Apr-18 17:23 290 10.6
2018-Apr-18 17:18 290 10.6
2018-Apr-18 17:13 290 10.6
2018-Apr-18 17:08 290 10.6
2018-Apr-18 17:03 290 10.6
2018-Apr-18 16:58 290 10.6
2018-Apr-18 16:53 290 11.1
2018-Apr-18 16:48 290 11.1
2018-Apr-18 16:43 290 11.1
2018-Apr-18 16:38 290 11.1
2018-Apr-18 16:33 290 11.1
2018-Apr-18 16:28 290 11.1
2018-Apr-18 16:23 290 11.1
2018-Apr-18 16:18 290 11.7
2018-Apr-18 16:13 290 11.7
2018-Apr-18 16:08 290 11.7
2018-Apr-18 16:03 290 11.7
2018-Apr-18 15:58 290 11.7
2018-Apr-18 15:53 290 12.2
2018-Apr-18 15:48 290 12.2
2018-Apr-18 15:43 290 12.2
2018-Apr-18 15:38 290 12.2
2018-Apr-18 15:33 290 12.8
2018-Apr-18 15:23 290 12.8
2018-Apr-18 15:18 290 12.8
2018-Apr-18 15:13 290 12.8
2018-Apr-18 15:08 290 12.8
2018-Apr-18 15:03 290 12.8
2018-Apr-18 14:58 290 12.8
2018-Apr-18 14:53 290 12.8
2018-Apr-18 14:48 290 12.8
2018-Apr-18 14:43 290 12.8
2018-Apr-18 14:38 290 12.8
2018-Apr-18 14:33 290 12.8
2018-Apr-18 14:28 290 12.8
2018-Apr-18 14:23 290 13.3
2018-Apr-18 14:18 290 13.3
2018-Apr-18 14:13 290 13.3
2018-Apr-18 14:08 290 13.3
2018-Apr-18 14:03 290 13.3
2018-Apr-18 13:58 290 13.3
2018-Apr-18 13:53 290 13.3
2018-Apr-18 13:48 290 13.9
2018-Apr-18 13:43 290 13.9
2018-Apr-18 13:38 290 13.9
2018-Apr-18 13:33 290 13.9
2018-Apr-18 13:28 290 13.9
2018-Apr-18 13:23 290 13.9
2018-Apr-18 13:18 290 14.4
2018-Apr-18 13:13 290 14.4
2018-Apr-18 13:08 290 14.4
2018-Apr-18 13:03 290 14.4
2018-Apr-18 12:58 290 14.4
2018-Apr-18 12:53 290 14.4
2018-Apr-18 12:48 290 14.4
2018-Apr-18 12:43 290 14.4
2018-Apr-18 12:38 290 14.4
2018-Apr-18 12:33 290 15.0
2018-Apr-18 12:28 290 15.0
2018-Apr-18 12:23 290 15.0
2018-Apr-18 12:18 290 15.0
2018-Apr-18 12:13 290 15.0
2018-Apr-18 12:08 290 15.0
2018-Apr-18 12:03 290 15.6
2018-Apr-18 11:58 290 15.6
2018-Apr-18 11:53 290 15.6
2018-Apr-18 11:48 290 15.6
2018-Apr-18 11:43 290 15.6
2018-Apr-18 11:38 290 15.6
2018-Apr-18 11:33 290 16.1
2018-Apr-18 11:28 290 16.1
2018-Apr-18 11:23 290 16.1
2018-Apr-18 11:18 290 16.1
2018-Apr-18 11:13 290 16.1
2018-Apr-18 11:08 290 16.1
2018-Apr-18 11:03 290 16.1
2018-Apr-18 10:58 291 16.7
2018-Apr-18 10:53 291 16.7
2018-Apr-18 10:48 291 16.7
2018-Apr-18 10:43 291 16.7
2018-Apr-18 10:38 291 17.2
2018-Apr-18 10:33 291 17.2
2018-Apr-18 10:28 291 17.2
2018-Apr-18 10:23 291 17.2
2018-Apr-18 10:18 276 17.2
2018-Apr-18 10:13 276 17.2
2018-Apr-18 10:08 276 17.2
2018-Apr-18 10:03 284 17.8
2018-Apr-18 09:58 297 17.8
2018-Apr-18 09:53 286 17.8
2018-Apr-18 09:48 285 17.8
2018-Apr-18 09:43 331 18.3
2018-Apr-18 09:38 304 18.3
2018-Apr-18 09:33 304 18.9
2018-Apr-18 09:28 304 18.9
2018-Apr-18 09:23 295 18.9
2018-Apr-18 09:18 336 19.4
2018-Apr-18 09:13 252 19.4
2018-Apr-18 09:08 306 20.0
2018-Apr-18 09:03 306 20.0
2018-Apr-18 08:58 306 20.6
2018-Apr-18 08:53 306 20.6
2018-Apr-18 08:48 279 21.1
2018-Apr-18 08:43 279 21.1
2018-Apr-18 08:38 270 21.7
2018-Apr-18 08:33 308 21.7
2018-Apr-18 08:28 317 22.2
2018-Apr-18 08:23 307 22.8
2018-Apr-18 08:18 303 22.8
2018-Apr-18 08:13 270 22.8
2018-Apr-18 08:08 184 23.3
2018-Apr-18 08:03 274 23.3
2018-Apr-18 07:58 303 23.9
2018-Apr-18 07:53 228 23.9
2018-Apr-18 07:48 295 24.4
2018-Apr-18 07:43 228 24.4
2018-Apr-18 07:38 222 24.4
2018-Apr-18 07:33 085 25.0
2018-Apr-18 07:28 285 25.0
2018-Apr-18 07:23 285 25.0
2018-Apr-18 07:18 213 24.4
2018-Apr-18 07:13 234 24.4
2018-Apr-18 07:08 315 24.4
2018-Apr-18 07:03 315 24.4
2018-Apr-18 06:58 299 23.9
2018-Apr-18 06:53 299 23.3
2018-Apr-18 06:48 298 23.3
2018-Apr-18 06:43 298 23.3
2018-Apr-18 06:38 298 23.3
2018-Apr-18 06:32 299 23.9
2018-Apr-18 06:27 299 23.9
2018-Apr-18 06:22 297 24.4
2018-Apr-18 06:17 297 25.0
2018-Apr-18 06:12 294 25.0
2018-Apr-18 06:07 278 25.0
2018-Apr-18 06:02 279 25.0
2018-Apr-18 05:57 300 0 gusting 2 25.6
2018-Apr-18 05:52 296 25.6
2018-Apr-18 05:47 307 25.6
2018-Apr-18 05:42 293 25.6
2018-Apr-18 05:37 293 25.0
2018-Apr-18 05:32 285 25.0
2018-Apr-18 05:27 286 0 gusting 1 25.0
2018-Apr-18 05:22 308 25.6
2018-Apr-18 05:17 301 26.1
2018-Apr-18 05:12 307 26.1
2018-Apr-18 05:07 265 25.6
2018-Apr-18 05:02 265 25.6
2018-Apr-18 04:57 282 25.0
2018-Apr-18 04:52 293 25.0
2018-Apr-18 04:47 245 24.4
2018-Apr-18 04:42 247 24.4
2018-Apr-18 04:37 306 25.0
2018-Apr-18 04:32 306 25.0
2018-Apr-18 04:27 307 25.0
2018-Apr-18 04:22 286 24.4
2018-Apr-18 04:17 286 23.9
2018-Apr-18 04:12 297 23.9
2018-Apr-18 04:07 298 23.9
2018-Apr-18 04:02 298 23.9
2018-Apr-18 03:57 298 23.9
2018-Apr-18 03:52 298 23.9
2018-Apr-18 03:47 298 24.4
2018-Apr-18 03:42 293 24.4
2018-Apr-18 03:37 294 24.4
2018-Apr-18 03:32 285 24.4
2018-Apr-18 03:27 289 24.4
2018-Apr-18 03:22 289 23.9
2018-Apr-18 03:17 289 23.3
2018-Apr-18 03:12 289 23.3
2018-Apr-18 03:07 290 22.8
2018-Apr-18 03:02 290 22.8
2018-Apr-18 02:57 287 22.2
2018-Apr-18 02:52 289 21.7
2018-Apr-18 02:47 289 21.1
2018-Apr-18 02:42 289 21.1
2018-Apr-18 02:37 289 20.6
2018-Apr-18 02:32 289 20.6
2018-Apr-18 02:27 359 20.0
2018-Apr-18 02:22 359 19.4
2018-Apr-18 02:17 290 18.9
2018-Apr-18 02:12 289 18.3
2018-Apr-18 02:07 288 17.8
2018-Apr-18 02:02 289 17.8
2018-Apr-18 01:57 289 17.2
2018-Apr-18 01:52 290 16.7
2018-Apr-18 01:47 289 16.1
2018-Apr-18 01:42 287 16.1
2018-Apr-18 01:37 291 16.1
2018-Apr-18 01:32 288 15.6
2018-Apr-18 01:27 359 15.6
2018-Apr-18 01:22 287 15.6
2018-Apr-18 01:17 287 15.0
2018-Apr-18 01:12 289 15.0
2018-Apr-18 01:07 287 15.0
2018-Apr-18 01:02 291 15.0
2018-Apr-18 00:57 287 15.0
2018-Apr-18 00:52 359 15.0
2018-Apr-18 00:47 359 14.4
2018-Apr-18 00:42 287 14.4
2018-Apr-18 00:37 359 14.4
2018-Apr-18 00:32 288 14.4
2018-Apr-18 00:27 289 14.4
2018-Apr-18 00:22 359 13.9
2018-Apr-18 00:17 359 13.9
2018-Apr-18 00:12 291 13.9
2018-Apr-18 00:07 287 13.9
2018-Apr-18 00:02 288 13.9
2018-Apr-17 23:57 359 13.9
2018-Apr-17 23:52 359 13.9
2018-Apr-17 23:47 359 13.9
2018-Apr-17 23:42 289 13.3
2018-Apr-17 23:37 359 13.3
2018-Apr-17 23:32 359 13.3
2018-Apr-17 23:27 291 13.3
2018-Apr-17 23:22 289 13.3
2018-Apr-17 23:17 359 13.3
2018-Apr-17 23:12 291 13.3
2018-Apr-17 23:07 359 13.3
2018-Apr-17 23:02 359 13.3
2018-Apr-17 22:57 287 13.3
2018-Apr-17 22:52 359 12.8
2018-Apr-17 22:47 288 12.8
2018-Apr-17 22:42 359 12.8
2018-Apr-17 22:37 359 12.8
2018-Apr-17 22:32 288 12.8
2018-Apr-17 22:27 359 12.8
2018-Apr-17 22:22 287 12.8
2018-Apr-17 22:17 359 12.8
2018-Apr-17 22:12 287 12.8
2018-Apr-17 22:07 359 12.8
2018-Apr-17 22:02 359 12.8
2018-Apr-17 21:57 289 12.8
2018-Apr-17 21:52 359 12.2
2018-Apr-17 21:47 359 12.2
2018-Apr-17 21:42 288 12.2
2018-Apr-17 21:37 288 12.2
2018-Apr-17 21:32 359 12.2
2018-Apr-17 21:27 287 12.2
2018-Apr-17 21:22 359 12.2
2018-Apr-17 21:17 291 12.2
2018-Apr-17 21:12 289 12.2
2018-Apr-17 21:07 359 12.2
2018-Apr-17 21:02 289 12.2
2018-Apr-17 20:57 287 12.2
2018-Apr-17 20:52 359 12.2
2018-Apr-17 20:47 287 12.2
2018-Apr-17 20:42 359 12.2
2018-Apr-17 20:37 359 12.2
2018-Apr-17 20:32 290 12.2
2018-Apr-17 20:27 290 12.2
2018-Apr-17 20:22 291 12.2
2018-Apr-17 20:17 359 12.2
2018-Apr-17 20:12 359 12.2
2018-Apr-17 20:07 287 12.2
2018-Apr-17 20:02 291 12.2
2018-Apr-17 19:57 287 12.2
2018-Apr-17 19:52 359 12.2
2018-Apr-17 19:47 359 12.2
2018-Apr-17 19:42 289 12.2
2018-Apr-17 19:37 291 12.2
2018-Apr-17 19:32 289 12.2
2018-Apr-17 19:27 289 12.2
2018-Apr-17 19:22 359 12.2
2018-Apr-17 19:17 359 12.2
2018-Apr-17 19:12 289 12.2
2018-Apr-17 19:07 287 12.2
2018-Apr-17 19:02 291 12.2
2018-Apr-17 18:57 289 12.2
2018-Apr-17 18:52 287 12.2
2018-Apr-17 18:47 359 12.2
2018-Apr-17 18:42 291 12.2
2018-Apr-17 18:37 287 12.2
2018-Apr-17 18:32 291 12.2
2018-Apr-17 18:27 289 12.2
2018-Apr-17 18:22 359 12.2
2018-Apr-17 18:17 289 12.2
2018-Apr-17 18:12 289 12.2
2018-Apr-17 18:07 359 12.2
2018-Apr-17 18:02 359 12.2
2018-Apr-17 17:57 290 12.2
2018-Apr-17 17:52 359 12.2
2018-Apr-17 17:47 290 12.2
2018-Apr-17 17:42 289 12.2
2018-Apr-17 17:37 291 12.2
2018-Apr-17 17:32 359 12.2
2018-Apr-17 17:27 289 12.2
2018-Apr-17 17:22 291 12.2
2018-Apr-17 17:17 359 12.2
2018-Apr-17 17:12 289 12.2
2018-Apr-17 17:07 359 12.2
2018-Apr-17 17:02 359 12.2
2018-Apr-17 16:57 359 12.2
2018-Apr-17 16:52 287 12.2
2018-Apr-17 16:47 291 12.2
2018-Apr-17 16:42 288 12.2
2018-Apr-17 16:37 289 12.2
2018-Apr-17 16:32 359 12.2
2018-Apr-17 16:27 359 12.2
2018-Apr-17 16:22 287 12.2
2018-Apr-17 16:17 289 12.2
2018-Apr-17 16:12 287 12.2
2018-Apr-17 16:07 289 12.2
2018-Apr-17 16:02 289 12.2
2018-Apr-17 15:57 359 12.2
2018-Apr-17 15:52 287 12.8
2018-Apr-17 15:47 289 12.8
2018-Apr-17 15:42 359 12.2
2018-Apr-17 15:37 291 12.8
2018-Apr-17 15:32 359 12.2
2018-Apr-17 15:27 287 12.8
2018-Apr-17 15:22 287 12.8
2018-Apr-17 15:17 359 12.8
2018-Apr-17 15:12 289 12.8
2018-Apr-17 15:07 289 12.8
2018-Apr-17 15:02 359 12.8
2018-Apr-17 14:57 291 12.8
2018-Apr-17 14:52 359 12.8
2018-Apr-17 14:47 291 12.8
2018-Apr-17 14:42 359 12.8
2018-Apr-17 14:37 289 12.8
2018-Apr-17 14:32 291 12.8
2018-Apr-17 14:27 287 12.8
2018-Apr-17 14:22 359 12.8
2018-Apr-17 14:17 289 12.8
2018-Apr-17 14:12 292 12.8
2018-Apr-17 14:07 289 12.8
2018-Apr-17 14:02 289 12.8
2018-Apr-17 13:57 289 12.8
2018-Apr-17 13:52 359 12.8
2018-Apr-17 13:47 359 12.8
2018-Apr-17 13:42 292 12.8
2018-Apr-17 13:37 359 12.8
2018-Apr-17 13:32 289 12.8
2018-Apr-17 13:27 288 12.8
2018-Apr-17 13:22 288 12.8
2018-Apr-17 13:17 359 12.8
2018-Apr-17 13:12 359 12.8
2018-Apr-17 13:06 289 12.8
2018-Apr-17 13:01 291 12.8
2018-Apr-17 12:56 359 12.8
2018-Apr-17 12:51 359 12.8
2018-Apr-17 12:46 291 12.8
2018-Apr-17 12:41 359 12.8
2018-Apr-17 12:36 359 12.8
2018-Apr-17 12:31 291 12.8
2018-Apr-17 12:26 291 12.8
2018-Apr-17 12:21 289 12.8
2018-Apr-17 12:16 359 12.8
2018-Apr-17 12:11 288 12.8
2018-Apr-17 12:06 359 12.8
2018-Apr-17 12:01 291 12.8
2018-Apr-17 11:56 359 12.8
2018-Apr-17 11:51 291 12.8
2018-Apr-17 11:46 359 12.8
2018-Apr-17 11:41 291 12.8
2018-Apr-17 11:36 359 12.8
2018-Apr-17 11:31 288 12.8
2018-Apr-17 11:26 289 12.8
2018-Apr-17 11:21 289 12.8
2018-Apr-17 11:16 288 12.8
2018-Apr-17 11:11 290 12.8
2018-Apr-17 11:06 289 12.8
2018-Apr-17 11:01 291 12.8